AirNav   Pilot Hours Calculator
 
 1044 users online  

9MO7 Urbana Area Medical Heliport
Urbana, Missouri, USA

GOING TO URBANA?


FAA INFORMATION EFFECTIVE 15 AUGUST 2019

Location

FAA Identifier: 9MO7
Lat/Long: 37-50-30.1270N 093-10-00.6930W
37-50.502117N 093-10.011550W
37.8417019,-93.1668592
(estimated)
Elevation: 1050 ft. / 320 m (estimated)
Variation: 04E (1985)
Time zone: UTC -5 (UTC -6 during Standard Time)
Zip code: 65767

Heliport Operations

Heliport use: Private use. Permission required prior to landing
Activation date: 11/1990
Control tower: no
ARTCC: KANSAS CITY CENTER
FSS: COLUMBIA FLIGHT SERVICE STATION
Attendance: UNATNDD
Wind indicator: yes
Segmented circle: no
Lights: SS-SR
Beacon: RED ROTG BCN.

Nearby radio navigation aids

VOR radial/distance  VOR name  Freq  Var
SHYr246/29.3SUNSHINE VOR/DME108.4000E
SGFr011/30.2SPRINGFIELD VORTAC116.9004E

 
NDB name  Hdg/Dist  Freq  Var  ID
GOLDEN VALLEY141/39.538801EGLY --. .-.. -.--

Heliport Services

Runway Information

Helipad H1

Dimensions: 40 x 40 ft. / 12 x 12 m
Surface: concrete
Runway edge lights: FLD
Latitude: 37-50.502117N
Longitude: 093-10.011550W
Elevation: 1050.0 ft.
Traffic pattern: leftleft

Heliport Ownership and Management from official FAA records

Ownership: Publicly-owned
Owner: CITY OF URBANA
PO BOX 227
URBANA, MO 65767
Phone 417-993-4643
Manager: ROD HOOPER
PO BOX 227
URBANA, MO 65767
Phone 417-993-5447

Additional Remarks

FOR CD CTC SPRINGFIELD APCH AT 417-868-5620/5619.

Instrument Procedures

There are no published instrument procedures at 9MO7.

Some nearby airports with instrument procedures:

M17 - Bolivar Municipal Airport (17 nm SW)
KOZS - Camdenton Memorial-Lake Regional Airport (24 nm E)
KLBO - Floyd W Jones Lebanon Airport (27 nm SE)
K15 - Grand Glaize-Osage Beach Airport (28 nm NE)
KRAW - Warsaw Municipal Airport (32 nm N)
 
Loc | Ops | Rwys | IFR | FBO | Links
Com | Nav | Svcs | Stats | Notes

Kansas City Aviation Department
 
Area around 9MO7 (Urbana Area Medical Heliport)
 
Road maps at: MapQuest Bing Google
 
Aerial photo
No photo
 
Sectional chart

 
Airport distance calculator
Flying to Urbana Area Medical Heliport? Find the distance to fly.

From to 9MO7

Sunrise and sunset
Times for 18-Aug-2019
 Local
(UTC-5)
 Zulu
(UTC)
Morning civil twilight06:0411:04
Sunrise06:3211:32
Sunset20:0101:01
Evening civil twilight20:2901:29

Current date and time
Zulu (UTC)  18-Aug-2019 22:41:03
Local (UTC-5)  18-Aug-2019 17:41:03
 
METAR
KOZS 
24nm E 
182215Z AUTO 24003KT 10SM CLR 31/21 A2990 RMK AO2
KLBO 
27nm SE 
182215Z AUTO 21004KT 10SM SCT034 32/22 A2991 RMK AO2
KRAW 
32nm N 
182155Z AUTO 22005KT 10SM CLR A2990 RMK AO2
KAIZ 
34nm NE 
182156Z AUTO 00000KT 10SM CLR 31/22 A2989 RMK AO2 SLP110 T03110222
TAF
KSGF 
38nm S 
182206Z 1822/1918 24008KT P6SM FEW040 FM182300 16007KT P6SM BKN040 FM191000 17006KT P6SM BKN150 WS020/24035KT FM191500 21008KT P6SM SCT040
NOTAMs
Click for the latest NOTAMs
NOTAMs are issued by the DoD/FAA and will open in a separate window not controlled by AirNav.

 

 
 

Would you like to see your business listed on this page?

 If your business provides an interesting product or service to pilots, flight crews, aircraft, or users of the Urbana Area Medical Heliport, you should consider listing it here.  To start the listing process, click on the button below
 
Add a business
 

Other Pages about Urbana Area Medical Heliport

Update a link
 
Copyright © AirNav, LLC. All rights reserved. Privacy Policy  Contact